Weather History for Marathon, FL

Change the Weather History Date:

Saturday, February 16, 2013

  Actual Average Record
Temperature  
Mean Temperature 70 °F 72 °F  
Max Temperature 74 °F 77 °F 83 °F (2008)
Min Temperature 65 °F 67 °F 57 °F (2007)
Degree Days  
Heating Degree Days 0 1  
Month to date heating degree days 0 12  
Since 1 July heating degree days 6 71  
Cooling Degree Days 5 7  
Month to date cooling degree days 146 107  
Year to date cooling degree days 474 288  
Growing Degree Days 18 (Base 50)    
Moisture  
Dew Point 56 °F    
Average Humidity 66    
Maximum Humidity 78    
Minimum Humidity 53    
Precipitation  
Precipitation 0.32 in 0.08 in 0.34 in (2002)
Month to date precipitation 1.12 1.25  
Year to date precipitation 1.66 2.86  
Snow  
Snow 0.00 in - - ()
Month to date snowfall 0.0  
Since 1 July snowfall 0.0  
Snow Depth 0.00 in    
Sea Level Pressure  
Sea Level Pressure 29.95 in    
Wind  
Wind Speed 13 mph (NW)    
Max Wind Speed 23 mph    
Max Gust Speed 35 mph    
Visibility 8 miles    
Events Rain    
T = Trace of Precipitation, MM = Missing Value Source: NWS Daily Summary

Daily Weather History Graph

Daily Weather History Graph

Search for Another Location

Airport:

Trip Planner

Search our weather history database for the weather conditions in past years. The results will help you decide how hot, cold, wet, or windy it might be!

Date:

Astronomy

Feb. 16, 2013 Rise Set
Actual Time 6:57 AM EST 6:19 PM EST
Civil Twilight 6:34 AM EST 6:42 PM EST
Nautical Twilight 6:07 AM EST 7:09 PM EST
Astronomical Twilight 5:40 AM EST 7:36 PM EST
Moon 10:55 AM EST (2/16) No Moon Set
Length of Visible Light 12h 08m
Length of Day
11h 22m
Waxing Crescent, 39% of the Moon is Illuminated
Feb 16
Waxing Crescent
Feb 17
First Quarter
Feb 25
Full
Mar 4
Last Quarter
Mar 11
New

Hourly Weather History & Observations

Time (EST) Temp. Dew Point Humidity Pressure Visibility Wind Dir Wind Speed Gust Speed Precip Events Conditions
12:28 AM 69.8 °F - N/A% 29.94 in 4.0 mi Variable 5.8 mph - 0.04 in Rain Light Rain
12:53 AM 70.0 °F - N/A% 29.94 in 4.0 mi WSW 6.9 mph - 0.07 in Rain Light Rain
1:02 AM 69.8 °F - N/A% 29.94 in 4.0 mi WSW 5.8 mph 17.3 mph 0.01 in Rain Light Rain
1:53 AM 69.1 °F - N/A% 29.91 in 4.0 mi WSW 4.6 mph - 0.07 in Rain Light Rain
2:12 AM 69.8 °F - N/A% 29.90 in 5.0 mi West 8.1 mph - 0.02 in Rain Light Rain
2:34 AM 69.8 °F - N/A% 29.90 in 2.5 mi West 4.6 mph - 0.09 in Rain Rain
2:44 AM 69.8 °F - N/A% 29.89 in 4.0 mi West 3.5 mph - 0.11 in Rain Rain
2:53 AM 70.0 °F - N/A% 29.89 in 6.0 mi West 4.6 mph - 0.12 in Rain Light Rain
3:06 AM 69.8 °F - N/A% 29.89 in 10.0 mi WSW 3.5 mph - 0.00 in Rain Light Rain
3:19 AM 69.8 °F - N/A% 29.89 in 10.0 mi Calm Calm - 0.00 in   Overcast
3:42 AM 69.8 °F - N/A% 29.89 in 4.0 mi NW 3.5 mph - 0.01 in Rain Rain
3:47 AM 69.8 °F - N/A% 29.89 in 2.5 mi Variable 4.6 mph - 0.04 in Rain Rain
3:53 AM 70.0 °F - N/A% 29.89 in 3.0 mi NNW 9.2 mph - 0.05 in Rain Light Rain
4:10 AM 69.8 °F - N/A% 29.89 in 6.0 mi North 10.4 mph 17.3 mph 0.01 in Rain Light Rain
4:53 AM 68.0 °F - N/A% 29.89 in 10.0 mi North 10.4 mph 17.3 mph 0.01 in   Overcast
5:13 AM 68.0 °F - N/A% 29.89 in 10.0 mi North 8.1 mph - 0.00 in   Overcast
5:53 AM 69.1 °F 63.0 °F 81% 29.90 in 10.0 mi North 9.2 mph - 0.00 in   Overcast
6:53 AM 69.1 °F 62.1 °F 78% 29.93 in 10.0 mi North 8.1 mph - N/A   Overcast
7:44 AM 69.8 °F 62.6 °F 78% 29.94 in 10.0 mi North 8.1 mph - N/A   Overcast
7:53 AM 69.1 °F 62.1 °F 78% 29.94 in 10.0 mi North 8.1 mph - N/A   Overcast
8:53 AM 69.1 °F 62.1 °F 78% 29.95 in 10.0 mi North 6.9 mph - N/A   Mostly Cloudy
9:53 AM 71.1 °F 62.1 °F 73% 29.96 in 10.0 mi NNW 6.9 mph - N/A   Partly Cloudy
10:53 AM 73.9 °F 62.1 °F 66% 29.98 in 10.0 mi NNW 9.2 mph 17.3 mph N/A   Mostly Cloudy
11:29 AM 71.6 °F 60.8 °F 69% 29.98 in 10.0 mi NNW 12.7 mph 21.9 mph N/A   Overcast
11:53 AM 73.0 °F 59.0 °F 61% 29.99 in 10.0 mi NNW 12.7 mph 21.9 mph N/A   Mostly Cloudy
12:53 PM 72.0 °F 54.0 °F 53% 29.98 in 10.0 mi NW 13.8 mph 21.9 mph N/A   Clear
1:53 PM 71.1 °F 55.9 °F 59% 29.96 in 10.0 mi NW 16.1 mph 26.5 mph N/A   Mostly Cloudy
2:53 PM 70.0 °F 55.9 °F 61% 29.97 in 10.0 mi NW 18.4 mph 27.6 mph N/A   Mostly Cloudy
3:53 PM 69.1 °F 53.1 °F 57% 29.98 in 10.0 mi WNW 16.1 mph 26.5 mph N/A   Overcast
4:53 PM 68.0 °F 53.1 °F 59% 30.00 in 10.0 mi NW 17.3 mph 31.1 mph N/A   Mostly Cloudy
5:53 PM 68.0 °F 51.1 °F 55% 30.01 in 10.0 mi NW 17.3 mph 25.3 mph N/A   Clear
6:53 PM 68.0 °F 52.0 °F 56% 30.01 in 10.0 mi NW 18.4 mph 31.1 mph N/A   Scattered Clouds
7:53 PM 66.9 °F 54.0 °F 63% 30.03 in 10.0 mi NW 21.9 mph 33.4 mph N/A   Scattered Clouds
8:53 PM 66.0 °F 53.1 °F 63% 30.07 in 10.0 mi NW 18.4 mph 32.2 mph N/A   Mostly Cloudy
9:53 PM 64.9 °F 51.1 °F 61% 30.09 in 10.0 mi NNW 16.1 mph 29.9 mph N/A   Mostly Cloudy
10:53 PM 64.9 °F 51.1 °F 61% 30.09 in 10.0 mi NNW 16.1 mph 25.3 mph N/A   Mostly Cloudy
11:53 PM 64.9 °F 46.0 °F 50% 30.10 in 10.0 mi NW 15.0 mph 34.5 mph N/A   Mostly Cloudy